DW4554 Weather Reports


time (UTC)temp
C
wind
direction
speed
KPH
gust
KPH
rain 1hr
cm
rain 24hr
cm
rain mn
cm
humidity
%
barometer
mb
20260504013904 11 61 3.2 4.8 0.00 0.00 0.00 60 1014.2
20260504013404 11 55 3.2 4.8 0.00 0.00 0.00 59 1014.2
20260504012904 11 56 3.2 4.8 0.00 0.00 0.00 59 1014.2
20260504012404 11 56 1.6 3.2 0.00 0.00 0.00 58 1014.3
20260504011904 11 56 1.6 3.2 0.00 0.00 0.00 58 1014.2
20260504011405 11 56 1.6 4.8 0.00 0.00 0.00 58 1014.2
20260504010404 11 56 3.2 4.8 0.00 0.00 0.00 57 1014.2
20260504005904 11 59 3.2 4.8 0.00 0.00 0.00 57 1014.2
20260504005405 11 98 1.6 3.2 0.00 0.00 0.00 57 1014.2
20260504004404 12 55 1.6 4.8 0.00 0.00 0.00 56 1014.2
20260504003904 12 75 1.6 4.8 0.00 0.00 0.00 56 1014.2
20260504003404 12 77 1.6 4.8 0.00 0.00 0.00 55 1014.3
20260504002904 12 73 1.6 3.2 0.00 0.00 0.00 55 1014.3
20260504002404 12 73 1.6 4.8 0.00 0.00 0.00 54 1014.3
20260504001405 13 65 1.6 3.2 0.00 0.00 0.00 53 1014.3
20260504000404 13 63 0.0 3.2 0.00 0.00 0.00 52 1014.3
20260503235904 13 63 1.6 4.8 0.00 0.00 0.00 51 1014.4
20260503235405 13 62 1.6 4.8 0.00 0.00 0.00 51 1014.4
20260503234404 13 80 1.6 4.8 0.00 0.00 0.00 50 1014.4
20260503233904 13 134 1.6 8.0 0.00 0.00 0.00 49 1014.4
20260503233404 13 61 1.6 4.8 0.00 0.00 0.00 49 1014.4
20260503232905 13 91 0.0 4.8 0.00 0.00 0.00 49 1014.4
20260503232404 13 68 1.6 4.8 0.00 0.00 0.00 49 1014.4
20260503231404 13 132 3.2 14.5 0.00 0.00 0.00 48 1014.4
20260503230905 13 66 1.6 29.0 0.00 0.00 0.00 49 1014.4
20260503230404 13 158 1.6 9.7 0.00 0.00 0.00 49 1014.4
20260503225904 13 126 3.2 8.0 0.00 0.00 0.00 49 1014.4
20260503225404 14 68 1.6 8.0 0.00 0.00 0.00 49 1014.4
20260503224905 14 293 1.6 8.0 0.00 0.00 0.00 49 1014.5
20260503224404 14 84 1.6 4.8 0.00 0.00 0.00 49 1014.5
20260503223905 14 109 1.6 11.3 0.00 0.00 0.00 49 1014.5
20260503223405 14 10 3.2 8.0 0.00 0.00 0.00 49 1014.4
20260503222904 14 67 3.2 8.0 0.00 0.00 0.00 49 1014.5
20260503222405 14 60 1.6 8.0 0.00 0.00 0.00 49 1014.5
20260503221904 14 50 1.6 4.8 0.00 0.00 0.00 49 1014.6
20260503221404 14 70 1.6 4.8 0.00 0.00 0.00 49 1014.6
20260503220904 14 97 3.2 9.7 0.00 0.00 0.00 49 1014.5
20260503220404 14 78 1.6 8.0 0.00 0.00 0.00 49 1014.6
20260503215905 14 24 3.2 8.0 0.00 0.00 0.00 50 1014.6
20260503215404 14 65 3.2 8.0 0.00 0.00 0.00 50 1014.6
20260503214904 13 56 1.6 8.0 0.00 0.00 0.00 50 1014.6
20260503214404 13 129 1.6 9.7 0.00 0.00 0.00 50 1014.6
20260503213404 13 92 1.6 8.0 0.00 0.00 0.00 51 1014.7
20260503212904 13 55 3.2 9.7 0.00 0.00 0.00 51 1014.7
20260503211904 13 100 3.2 11.3 0.00 0.00 0.00 51 1014.7
20260503211404 13 75 1.6 4.8 0.00 0.00 0.00 51 1014.7
20260503210908 13 83 1.6 4.8 0.00 0.00 0.00 52 1014.7
20260503205904 13 71 1.6 4.8 0.00 0.00 0.00 52 1014.8
20260503204904 13 69 1.6 4.8 0.00 0.00 0.00 52 1014.9
20260503204404 13 67 1.6 3.2 0.00 0.00 0.00 52 1014.9
20260503203904 14 64 1.6 3.2 0.00 0.00 0.00 52 1014.9
20260503203404 14 63 0.0 3.2 0.00 0.00 0.00 52 1014.9
20260503202904 14 63 1.6 4.8 0.00 0.00 0.00 51 1015.0
20260503202405 14 59 3.2 4.8 0.00 0.00 0.00 51 1014.9
20260503201904 14 85 3.2 4.8 0.00 0.00 0.00 50 1015.0
20260503201404 14 96 1.6 3.2 0.00 0.00 0.00 50 1015.0
20260503200904 15 96 1.6 3.2 0.00 0.00 0.00 50 1015.0
20260503200404 15 98 1.6 8.0 0.00 0.00 0.00 49 1015.0
20260503195905 15 90 1.6 3.2 0.00 0.00 0.00 49 1015.0
20260503195404 15 92 1.6 4.8 0.00 0.00 0.00 49 1015.0
20260503194904 15 54 3.2 4.8 0.00 0.00 0.00 49 1015.0
20260503194404 15 50 3.2 4.8 0.00 0.00 0.00 49 1015.0
20260503193904 15 51 1.6 4.8 0.00 0.00 0.00 49 1015.1
20260503193404 15 52 1.6 4.8 0.00 0.00 0.00 49 1015.1
20260503192904 15 50 3.2 4.8 0.00 0.00 0.00 48 1015.1
20260503191905 16 60 1.6 4.8 0.00 0.00 0.00 48 1015.0
20260503191404 16 59 3.2 4.8 0.00 0.00 0.00 47 1015.0
20260503190904 16 73 3.2 4.8 0.00 0.00 0.00 47 1014.9
20260503190404 17 84 3.2 4.8 0.00 0.00 0.00 47 1014.9
20260503185904 17 71 1.6 4.8 0.00 0.00 0.00 47 1014.9
20260503185404 17 147 3.2 4.8 0.00 0.00 0.00 46 1014.9
20260503184405 18 147 1.6 4.8 0.00 0.00 0.00 43 1014.9
20260503183904 18 147 1.6 3.2 0.00 0.00 0.00 42 1014.8
20260503183405 18 147 0.0 3.2 0.00 0.00 0.00 40 1014.8
20260503182904 19 147 1.6 3.2 0.00 0.00 0.00 39 1014.7
20260503182404 19 147 1.6 4.8 0.00 0.00 0.00 38 1014.6
20260503181904 19 147 1.6 4.8 0.00 0.00 0.00 37 1014.6
20260503181404 20 147 1.6 4.8 0.00 0.00 0.00 37 1014.5
20260503180905 20 147 1.6 4.8 0.00 0.00 0.00 37 1014.5
20260503175904 20 157 1.6 4.8 0.00 0.00 0.00 36 1014.5
20260503175405 20 161 1.6 8.0 0.00 0.00 0.00 35 1014.4
20260503174904 20 138 1.6 11.3 0.00 0.00 0.00 35 1014.4
20260503174405 20 177 1.6 8.0 0.00 0.00 0.00 35 1014.4
20260503173404 21 164 1.6 8.0 0.00 0.00 0.00 34 1014.4
20260503172404 21 150 4.8 11.3 0.00 0.00 0.00 33 1014.3
20260503171904 21 156 1.6 11.3 0.00 0.00 0.00 33 1014.4
20260503171404 21 183 4.8 9.7 0.00 0.00 0.00 32 1014.3
20260503170904 21 197 4.8 14.5 0.00 0.00 0.00 32 1014.3
20260503170405 21 198 4.8 11.3 0.00 0.00 0.00 31 1014.3
20260503150904 25 176 6.4 12.9 0.00 0.00 0.00 30 1014.4
20260503150405 25 169 8.0 16.1 0.00 0.00 0.00 31 1014.6
20260503131404 25 194 14.5 24.1 0.00 0.00 0.00 32 1015.8
20260503130904 25 210 6.4 14.5 0.00 0.00 0.00 33 1015.8
20260503110405 22 142 3.2 9.7 0.00 0.00 0.00 38 1016.9
20260503090405 21 191 3.2 14.5 0.00 0.00 0.00 40 1017.9
20260503081405 20 136 1.6 9.7 0.00 0.00 0.00 42 1018.1
20260503080904 20 158 3.2 8.0 0.00 0.00 0.00 44 1018.0
20260503080404 19 174 3.2 12.9 0.00 0.00 0.00 43 1018.1
20260503072904 18 178 8.0 16.1 0.00 0.00 0.00 44 1018.1
20260503072404 18 185 6.4 14.5 0.00 0.00 0.00 45 1018.1
20260503071904 18 160 1.6 8.0 0.00 0.00 0.00 46 1018.0
20260503071405 18 37 1.6 8.0 0.00 0.00 0.00 47 1017.9
20260503070904 18 140 1.6 4.8 0.00 0.00 0.00 47 1018.0
20260503070404 17 134 1.6 11.3 0.00 0.00 0.00 48 1018.0
20260503054904 11 59 3.2 8.0 0.00 0.00 0.00 70 1017.9
20260503054404 11 50 4.8 8.0 0.00 0.00 0.00 72 1017.8
20260503053904 10 82 4.8 8.0 0.00 0.00 0.00 75 1017.9
20260503053404 10 49 3.2 4.8 0.00 0.00 0.00 77 1017.9
20260503052904 10 50 3.2 4.8 0.00 0.00 0.00 78 1017.9
20260503052404 10 29 3.2 4.8 0.00 0.00 0.00 79 1017.9
20260503051904 9 60 1.6 4.8 0.00 0.00 0.00 79 1017.9
20260503051404 9 60 3.2 4.8 0.00 0.00 0.00 80 1017.9
20260503050905 9 60 3.2 4.8 0.00 0.00 0.00 80 1017.9
20260503050404 8 60 3.2 4.8 0.00 0.00 0.00 81 1018.0
20260503045904 8 60 3.2 4.8 0.00 0.00 0.00 81 1018.0
20260503043404 8 60 3.2 4.8 0.00 0.00 0.00 81 1017.9
20260503042904 8 60 3.2 4.8 0.00 0.00 0.00 81 1017.8
20260503042405 8 60 1.6 4.8 0.00 0.00 0.00 81 1017.8
20260503041904 7 60 3.2 4.8 0.00 0.00 0.00 80 1017.8
20260503041405 7 60 3.2 4.8 0.00 0.00 0.00 80 1017.8
20260503040904 7 60 1.6 4.8 0.00 0.00 0.00 80 1017.7
20260503040405 7 60 3.2 4.8 0.00 0.00 0.00 80 1017.7
20260503035905 7 60 3.2 4.8 0.00 0.00 0.00 79 1017.7
20260503035404 7 60 1.6 4.8 0.00 0.00 0.00 79 1017.8
20260503034905 7 60 0.0 1.6 0.00 0.00 0.00 79 1017.8
20260503034404 7 60 1.6 3.2 0.00 0.00 0.00 80 1017.7
20260503033904 7 60 1.6 4.8 0.00 0.00 0.00 80 1017.8
20260503033404 7 60 1.6 4.8 0.00 0.00 0.00 80 1017.7
20260503032904 7 60 1.6 4.8 0.00 0.00 0.00 80 1017.6
20260503032404 7 60 3.2 4.8 0.00 0.00 0.00 80 1017.6
20260503031404 7 60 3.2 4.8 0.00 0.00 0.00 80 1017.5
20260503030904 7 60 3.2 4.8 0.00 0.00 0.00 80 1017.5
20260503030404 7 60 3.2 4.8 0.00 0.00 0.00 80 1017.5
20260503025905 7 60 3.2 4.8 0.00 0.00 0.00 80 1017.5
20260503025404 7 60 3.2 4.8 0.00 0.00 0.00 81 1017.5
20260503024904 7 60 3.2 4.8 0.00 0.00 0.00 81 1017.5
20260503024404 7 59 3.2 4.8 0.00 0.00 0.00 80 1017.5
20260503023904 7 59 4.8 4.8 0.00 0.00 0.00 80 1017.6
20260503023404 7 59 3.2 4.8 0.00 0.00 0.00 80 1017.5
20260503022905 7 59 3.2 4.8 0.00 0.00 0.00 80 1017.6
20260503022404 7 57 3.2 8.0 0.00 0.00 0.00 80 1017.5
20260503021904 7 56 1.6 4.8 0.00 0.00 0.00 80 1017.5
20260503021404 7 56 3.2 4.8 0.00 0.00 0.00 79 1017.5
20260503020404 7 56 3.2 4.8 0.00 0.00 0.00 79 1017.5
20260503015905 7 56 3.2 4.8 0.00 0.00 0.00 79 1017.6
20260503014904 7 56 3.2 4.8 0.00 0.00 0.00 78 1017.7
20260503014404 7 56 3.2 4.8 0.00 0.00 0.00 78 1017.7